[[[{"header":{"parameterUnit":"kt","parameterCategory":2,"dx":1,"dy":1,"la1":30.253999710083008,"la2":30.299108505249023,"lo1":-89.0895004272461,"lo2":-89.04439544677734,"nx":28,"ny":28,"refTime":"2022-10-10T21:00:00:Z","depth":"0","parameterNumber":2,"parameterNumberName":"U-component_of_CURRENTS"},"data":[-0.3693,-0.3742,-0.3792,-0.3761,-0.3827,-0.3638,-0.354,-0.3314,-0.3153,-0.2668,-0.2387,-0.2305,-0.219,-0.2041,-0.178,-0.1704,-0.1682,-0.162,-0.176,-0.1921,-0.1977,-0.203,-0.1871,-0.1506,-0.1506,-0.1305,-0.1304,-0.1303,-0.3774,-0.3853,-0.4031,-0.4143,-0.4187,-0.4295,-0.4356,-0.4177,-0.3952,-0.3897,-0.3633,-0.3179,-0.274,-0.2564,-0.2249,-0.211,-0.208,-0.2099,-0.2047,-0.2033,-0.2321,-0.2156,-0.1845,-0.1845,-0.1845,-0.1845,-0.1845,-0.1845,-0.3937,-0.3992,-0.4129,-0.4275,-0.4448,-0.4482,-0.4429,-0.4548,-0.4494,-0.4327,-0.4478,-0.4088,-0.3788,-0.325,-0.314,-0.2822,-0.2982,-0.2646,-0.2717,-0.2762,-0.2558,-0.2881,-0.2759,-0.2762,-0.2765,-0.2767,-0.277,0,-0.3983,-0.4065,-0.4162,-0.4336,-0.4469,-0.458,-0.4682,-0.4754,-0.4814,-0.4836,-0.4765,-0.4615,-0.4428,-0.3941,-0.3675,-0.3508,-0.3382,-0.342,-0.3359,-0.2815,-0.279,-0.2698,-0.311,-0.3072,-0.3077,-0.3081,-0.3084,-0.3086,-0.4096,-0.4094,-0.4261,-0.4367,-0.4394,-0.4479,-0.457,-0.4598,-0.4676,-0.4777,-0.4835,-0.4791,-0.4634,-0.4403,-0.4099,-0.3834,-0.3772,-0.3552,-0.3347,-0.3251,-0.3266,-0.3276,-0.3209,-0.3142,-0.3135,-0.3129,-0.3125,0,-0.4174,-0.4205,-0.4243,-0.4308,-0.4348,-0.4383,-0.4489,-0.4548,-0.4555,-0.4651,-0.4654,-0.4625,-0.4534,-0.4371,-0.4247,-0.4085,-0.3838,-0.3884,-0.366,-0.3599,-0.328,-0.3307,-0.3298,-0.3214,-0.3759,-0.3756,-0.3754,0,-0.4262,-0.4252,-0.4315,-0.4301,-0.4369,-0.4344,-0.4407,-0.4393,-0.4414,-0.4479,-0.4374,-0.4416,-0.4232,-0.4203,-0.4055,-0.3915,-0.4016,-0.3723,-0.3698,-0.3475,-0.3444,-0.3332,-0.3344,-0.3846,-0.3844,-0.3843,-0.3842,0,-0.4302,-0.4322,-0.4317,-0.4308,-0.4318,-0.4326,-0.4312,-0.4295,-0.4311,-0.4265,-0.4312,-0.4193,-0.4171,-0.4077,-0.3938,-0.3883,-0.3915,-0.3828,-0.3678,-0.3672,-0.345,-0.3417,-0.3374,-0.384,-0.3839,-0.3839,-0.3838,0,-0.4323,-0.4328,-0.4332,-0.4327,-0.4317,-0.4317,-0.4286,-0.4265,-0.4217,-0.4179,-0.4109,-0.4016,-0.3946,-0.3832,-0.3777,-0.3738,-0.3697,-0.3647,-0.3652,-0.3488,-0.3411,-0.3384,-0.3356,-0.3248,-0.3701,-0.3699,-0.3698,0,-0.4331,-0.4334,-0.4296,-0.4289,-0.4263,-0.4193,-0.419,-0.4133,-0.4063,-0.4033,-0.3894,-0.3827,-0.3689,-0.365,-0.3617,-0.3531,-0.3561,-0.3485,-0.3536,-0.3539,-0.346,-0.3469,-0.3212,-0.3342,-0.3675,-0.3677,-0.3679,0,-0.4302,-0.4249,-0.4238,-0.4233,-0.4148,-0.4111,-0.4087,-0.401,-0.4018,-0.3887,-0.3883,-0.3701,-0.3636,-0.3575,-0.3465,-0.3457,-0.3525,-0.3407,-0.3406,-0.3552,-0.361,-0.3458,-0.346,-0.3468,-0.347,-0.3471,-0.366,0,-0.4254,-0.4239,-0.4222,-0.4173,-0.4132,-0.4075,-0.3996,-0.3946,-0.3875,-0.3816,-0.3713,-0.3576,-0.349,-0.3427,-0.3356,-0.3341,-0.3355,-0.3289,-0.3333,-0.3325,-0.3403,-0.3417,-0.3219,-0.3218,-0.3217,-0.3215,0,0,-0.4226,-0.4195,-0.4101,-0.4096,-0.4057,-0.3947,-0.3938,-0.3874,-0.3756,-0.3724,-0.3708,-0.3506,-0.342,-0.3353,-0.3338,-0.3247,-0.3276,-0.3308,-0.3291,-0.33,-0.3308,-0.3384,-0.34,-0.3213,-0.3213,-0.3212,-0.3212,0,-0.4175,-0.4132,-0.4116,-0.4065,-0.3989,-0.3928,-0.3915,-0.3815,-0.3791,-0.3688,-0.3642,-0.3561,-0.3408,-0.3375,-0.333,-0.3234,-0.3276,-0.319,-0.3271,-0.3279,-0.329,-0.3299,-0.3376,-0.3391,-0.3208,-0.3209,-0.3209,0,-0.413,-0.4086,-0.4061,-0.3997,-0.3941,-0.3913,-0.3872,-0.3818,-0.3803,-0.3718,-0.3668,-0.3574,-0.3476,-0.3395,-0.3351,-0.3363,-0.3297,-0.3252,-0.3255,-0.3292,-0.3301,-0.3311,-0.3319,-0.3229,-0.323,-0.3231,0,0,-0.4103,-0.4061,-0.399,-0.3987,-0.3954,-0.3875,-0.3836,-0.3827,-0.3755,-0.3737,-0.3679,-0.3601,-0.3518,-0.3487,-0.3394,-0.328,-0.3304,-0.3264,-0.3263,-0.3263,-0.3299,-0.3308,-0.3315,-0.3235,-0.3235,-0.3235,0,0,-0.4097,-0.401,-0.4005,-0.4005,-0.394,-0.3851,-0.3831,-0.3802,-0.3735,-0.375,-0.3701,-0.3686,-0.36,-0.3536,-0.359,-0.3449,-0.344,-0.3425,-0.3537,-0.3534,-0.3532,-0.3616,-0.3638,0,0,0,0,0,-0.3994,-0.4004,-0.3998,-0.3991,-0.3917,-0.3832,-0.3814,-0.3819,-0.383,-0.3823,-0.3762,-0.378,-0.3576,-0.3622,-0.3589,-0.3596,-0.3282,-0.3274,-0.3266,-0.3378,-0.3375,-0.3374,0,0,0,0,0,0,-0.3991,-0.3984,-0.3996,-0.3914,-0.3896,-0.3832,-0.3875,-0.3873,-0.3838,-0.3851,-0.3782,-0.3776,-0.376,-0.3637,-0.3607,-0.3617,-0.3648,-0.3279,-0.3272,-0.3265,-0.3377,-0.3375,-0.3374,0,0,0,0,0,-0.3987,-0.3982,-0.3895,-0.3911,-0.3895,-0.3875,-0.3882,-0.3881,-0.3859,-0.3798,-0.3796,-0.3877,-0.3756,-0.3733,-0.3619,-0.3633,-0.3668,-0.3657,-0.3274,-0.3269,-0.3264,-0.3376,0,0,0,0,0,0,-0.3985,-0.3948,-0.3889,-0.3879,-0.398,-0.3881,-0.3879,-0.3888,-0.3809,-0.3805,-0.3891,-0.3902,-0.3751,-0.3735,-0.3716,-0.3644,-0.3685,-0.3673,-0.3667,-0.327,-0.3266,-0.3262,0,0,0,0,0,0,-0.3951,-0.3942,-0.3884,-0.3971,-0.3972,-0.3887,-0.3885,-0.3748,-0.3808,-0.3905,-0.3912,-0.3897,-0.379,-0.3734,-0.3721,-0.3503,-0.3698,-0.3687,-0.3679,-0.3675,-0.3266,-0.3263,0,0,0,0,0,0,-0.3944,-0.3936,-0.3974,-0.3974,-0.3974,-0.3861,-0.3762,-0.3696,-0.387,-0.3908,-0.3888,-0.3896,-0.3788,-0.3774,-0.3723,-0.3511,-0.3505,-0.3697,-0.369,-0.3685,-0.3681,0,0,0,0,0,0,0,-0.3939,-0.4026,-0.3952,-0.3976,-0.3976,-0.3788,-0.3785,-0.3782,-0.3872,-0.3879,-0.3886,-0.3893,-0.3759,-0.3747,-0.3735,-0.3517,0,0,-0.3698,-0.3693,0,0,0,0,0,0,0,0,-0.4026,-0.4026,-0.3951,-0.3949,-0.3948,-0.3788,-0.3785,-0.3783,-0.3873,-0.3879,-0.3885,-0.389,-0.3756,-0.3746,-0.3736,0,0,0,0,0,0,0,0,0,0,0,0,0,0,0,-0.3951,-0.395,0,-0.3788,-0.3786,-0.3783,-0.3874,-0.3879,-0.3883,-0.3888,-0.3753,-0.3745,-0.3737,0,0,0,0,0,0,0,0,0,0,0,0,0,0,0,0,0,0,0,0,0,0,0,0,0,0,0,0,0,0,0,0,0,0,0,0,0,0,0,0,0,0,0,0,0,0,0,0,0,0,0,0,0,0,0,0,0,0,0,0,0,0,0,0,0,0,0,0,0]}],[{"header":{"parameterUnit":"kt","parameterCategory":2,"dx":1,"dy":1,"la1":30.253999710083008,"la2":30.299108505249023,"lo1":-89.0895004272461,"lo2":-89.04439544677734,"nx":28,"ny":28,"refTime":"2022-10-10T21:00:00:Z","depth":"0","parameterNumber":3,"parameterNumberName":"V-component_of_CURRENTS"},"data":[-0.1146,-0.1493,-0.1659,-0.1948,-0.2056,-0.2052,-0.1988,-0.1772,-0.1557,-0.1058,-0.0669,-0.044,0.0139,0.0778,0.1157,0.1157,0.1285,0.1257,0.1332,0.1078,0.1043,0.1011,0.104,0.1339,0.1339,0.1683,0.1687,0.1689,-0.1025,-0.1258,-0.1537,-0.1807,-0.1945,-0.1961,-0.1973,-0.1879,-0.1664,-0.1443,-0.1176,-0.0618,-0.0222,0.0156,0.0604,0.0751,0.0767,0.0822,0.0875,0.0911,0.055,0.0565,0.0768,0.0768,0.0768,0.0768,0.0767,0.0767,-0.0847,-0.1038,-0.1317,-0.157,-0.1724,-0.1807,-0.1832,-0.1818,-0.174,-0.1503,-0.1349,-0.0991,-0.057,-0.0129,0.0024,0.0348,0.0299,0.0428,0.0472,0.0494,0.0581,0.0198,0.0304,0.0304,0.0303,0.0303,0.0303,0,-0.0731,-0.0846,-0.1037,-0.1318,-0.1469,-0.16,-0.1699,-0.1723,-0.1642,-0.1549,-0.1328,-0.1141,-0.0799,-0.0457,-0.0175,-0.0041,0.0127,0.0064,0.0198,0.0319,0.0395,0.0488,0.0044,0.0097,0.0095,0.0094,0.0093,0.0092,-0.0606,-0.0727,-0.0974,-0.1112,-0.1177,-0.1324,-0.1425,-0.1412,-0.146,-0.1321,-0.1331,-0.1119,-0.0933,-0.06,-0.0367,-0.0136,-0.0027,0.0015,0.0006,0.0165,0.0245,0.0284,0.0342,0.0073,0.0075,0.0077,0.0079,0,-0.0558,-0.0631,-0.0815,-0.0956,-0.1002,-0.1124,-0.1213,-0.13,-0.1261,-0.1286,-0.1276,-0.1105,-0.0902,-0.0722,-0.0519,-0.0399,-0.0146,-0.0174,-0.0123,-0.0085,0.0146,0.0197,0.0345,0.0425,-0.0043,-0.0041,-0.0039,0,-0.0467,-0.057,-0.0693,-0.0776,-0.0937,-0.0936,-0.1065,-0.1082,-0.1088,-0.1129,-0.1035,-0.0995,-0.0821,-0.0694,-0.0549,-0.0352,-0.0398,-0.0228,-0.0194,-0.0166,-0.0155,-0.0027,0.0027,-0.0306,-0.0306,-0.0307,-0.0308,0,-0.0371,-0.0487,-0.0624,-0.0661,-0.0762,-0.0803,-0.0841,-0.0869,-0.0914,-0.091,-0.0916,-0.0855,-0.0792,-0.0701,-0.0495,-0.0498,-0.0357,-0.0349,-0.0215,-0.0208,-0.0166,-0.0153,-0.0019,-0.0308,-0.0309,-0.0309,-0.0309,0,-0.0271,-0.0363,-0.0503,-0.0617,-0.0647,-0.0684,-0.0768,-0.0791,-0.0795,-0.0783,-0.076,-0.0713,-0.0653,-0.0573,-0.046,-0.0474,-0.0391,-0.0318,-0.0314,-0.0252,-0.0196,-0.0115,-0.0083,0.0056,-0.0227,-0.0227,-0.0227,0,-0.0202,-0.0339,-0.0333,-0.0441,-0.0528,-0.0508,-0.054,-0.0567,-0.0559,-0.0589,-0.0523,-0.0542,-0.0452,-0.0449,-0.0408,-0.0333,-0.0309,-0.0321,-0.0266,-0.0263,-0.0219,-0.0205,-0.0164,-0.0088,-0.0227,-0.0227,-0.0227,0,-0.0151,-0.0236,-0.0245,-0.0334,-0.0354,-0.0383,-0.0387,-0.0441,-0.0496,-0.044,-0.0495,-0.0425,-0.0406,-0.0397,-0.0354,-0.0328,-0.03,-0.029,-0.0289,-0.0274,-0.028,-0.021,-0.0203,-0.0303,-0.0304,-0.0305,-0.0227,0,-0.0245,-0.0251,-0.0238,-0.0307,-0.0311,-0.0323,-0.0347,-0.0345,-0.034,-0.0359,-0.0361,-0.0308,-0.0317,-0.0273,-0.0252,-0.0261,-0.0239,-0.0234,-0.0245,-0.0246,-0.0204,-0.0204,-0.0195,-0.0195,-0.0194,-0.0194,0,0,-0.0239,-0.0249,-0.0213,-0.0256,-0.028,-0.0271,-0.0319,-0.0307,-0.031,-0.0334,-0.0304,-0.0285,-0.0247,-0.0271,-0.026,-0.0222,-0.0213,-0.0238,-0.0231,-0.0235,-0.0239,-0.0201,-0.0202,-0.0193,-0.0193,-0.0193,-0.0193,0,-0.0291,-0.0232,-0.0225,-0.0243,-0.0268,-0.0276,-0.0278,-0.0285,-0.0298,-0.0291,-0.0307,-0.0289,-0.0246,-0.0257,-0.0251,-0.022,-0.0207,-0.0193,-0.0228,-0.0228,-0.0232,-0.0236,-0.02,-0.0201,-0.0192,-0.0192,-0.0192,0,-0.0359,-0.0351,-0.031,-0.0291,-0.0294,-0.0322,-0.0321,-0.03,-0.0328,-0.0317,-0.033,-0.0307,-0.0292,-0.0272,-0.0259,-0.0259,-0.0209,-0.0208,-0.0208,-0.0238,-0.0239,-0.0243,-0.0247,-0.0204,-0.0204,-0.0204,0,0,-0.042,-0.0366,-0.0376,-0.0303,-0.0312,-0.0321,-0.0307,-0.0327,-0.0324,-0.0327,-0.0325,-0.0316,-0.0304,-0.0296,-0.0275,-0.0231,-0.0229,-0.0212,-0.0211,-0.0211,-0.024,-0.0241,-0.0244,-0.0205,-0.0205,-0.0205,0,0,-0.0441,-0.0419,-0.0442,-0.0354,-0.0364,-0.035,-0.0323,-0.0339,-0.0336,-0.0346,-0.0352,-0.0352,-0.0335,-0.0312,-0.0331,-0.0277,-0.0275,-0.027,-0.0303,-0.0301,-0.0301,-0.0349,-0.034,0,0,0,0,0,-0.0499,-0.042,-0.0441,-0.0428,-0.0364,-0.0338,-0.0332,-0.035,-0.0366,-0.0359,-0.0372,-0.0369,-0.0336,-0.0352,-0.034,-0.0324,-0.022,-0.0217,-0.0215,-0.0245,-0.0244,-0.0243,0,0,0,0,0,0,-0.0494,-0.0476,-0.0443,-0.0421,-0.0407,-0.0339,-0.0376,-0.0379,-0.0369,-0.0377,-0.0366,-0.0368,-0.0374,-0.0357,-0.0346,-0.0332,-0.0344,-0.0219,-0.0216,-0.0214,-0.0245,-0.0244,-0.0243,0,0,0,0,0,-0.049,-0.0476,-0.0367,-0.0423,-0.041,-0.0416,-0.0379,-0.0382,-0.0378,-0.0371,-0.0374,-0.0397,-0.0372,-0.0365,-0.035,-0.0338,-0.0351,-0.0347,-0.0217,-0.0215,-0.0214,-0.0244,0,0,0,0,0,0,-0.0487,-0.0478,-0.0365,-0.0362,-0.0455,-0.0423,-0.0417,-0.0385,-0.0373,-0.0375,-0.04,-0.0407,-0.0369,-0.0364,-0.0359,-0.0341,-0.0357,-0.0353,-0.0351,-0.0216,-0.0215,-0.0213,0,0,0,0,0,0,-0.0486,-0.0476,-0.0364,-0.0404,-0.0406,-0.0428,-0.0424,-0.0371,-0.0373,-0.0404,-0.0409,-0.0403,-0.0382,-0.0363,-0.0359,-0.0276,-0.0362,-0.0358,-0.0355,-0.0353,-0.0215,-0.0214,0,0,0,0,0,0,-0.0482,-0.0473,-0.0404,-0.0406,-0.0408,-0.038,-0.0383,-0.0318,-0.04,-0.0404,-0.0409,-0.0413,-0.038,-0.0376,-0.0359,-0.0278,-0.0276,-0.0362,-0.0359,-0.0357,-0.0356,0,0,0,0,0,0,0,-0.0479,-0.0533,-0.0381,-0.0408,-0.041,-0.0338,-0.0338,-0.0337,-0.0401,-0.0405,-0.0408,-0.0411,-0.0384,-0.0379,-0.0375,-0.0279,0,0,-0.0362,-0.036,0,0,0,0,0,0,0,0,-0.0538,-0.0534,-0.0381,-0.0381,-0.038,-0.0338,-0.0338,-0.0337,-0.0402,-0.0405,-0.0407,-0.041,-0.0383,-0.0379,-0.0376,0,0,0,0,0,0,0,0,0,0,0,0,0,0,0,-0.0381,-0.0381,0,-0.0338,-0.0338,-0.0337,-0.0402,-0.0404,-0.0407,-0.0409,-0.0382,-0.0379,-0.0376,0,0,0,0,0,0,0,0,0,0,0,0,0,0,0,0,0,0,0,0,0,0,0,0,0,0,0,0,0,0,0,0,0,0,0,0,0,0,0,0,0,0,0,0,0,0,0,0,0,0,0,0,0,0,0,0,0,0,0,0,0,0,0,0,0,0,0,0,0]}]],[[{"header":{"parameterUnit":"kt","parameterCategory":2,"dx":1,"dy":1,"la1":30.253999710083008,"la2":30.299108505249023,"lo1":-89.0895004272461,"lo2":-89.04439544677734,"nx":28,"ny":28,"refTime":"2022-10-10T21:00:00:Z","depth":"2","parameterNumber":2,"parameterNumberName":"U-component_of_CURRENTS"},"data":[-0.2087,-0.2196,-0.2196,-0.2391,-0.2542,-0.2515,-0.2424,-0.2149,-0.2016,-0.169,-0.1542,-0.1716,-0.1708,-0.1405,-0.1333,-0.1185,-0.1393,-0.1119,-0.1867,-0.1899,-0.1948,-0.2091,-0.1958,0,0,0,0,0,-0.1978,-0.209,-0.2263,-0.251,-0.263,-0.2786,-0.2881,-0.2755,-0.2486,-0.2532,-0.2315,-0.1984,-0.1738,-0.1847,-0.172,-0.1642,-0.1636,-0.1583,-0.1561,-0.162,-0.1673,-0.1544,-0.1093,-0.1091,-0.1088,-0.1086,0,0,-0.1932,-0.1991,-0.2238,-0.2421,-0.2668,-0.284,-0.2842,-0.3023,-0.2993,-0.2939,-0.2991,-0.2694,-0.2708,-0.2415,-0.2281,-0.2296,-0.2486,-0.2319,-0.234,-0.2368,-0.2273,-0.2216,-0.2016,-0.202,-0.2023,-0.2026,-0.2028,0,-0.1995,-0.2037,-0.2206,-0.2479,-0.2683,-0.2907,-0.3144,-0.3219,-0.3507,-0.3443,-0.3366,-0.3228,-0.3241,-0.2905,-0.2879,-0.2751,-0.2882,-0.2744,-0.3261,-0.2552,-0.25,-0.2452,-0.2473,-0.237,-0.2376,-0.238,-0.2383,-0.2386,-0.2109,-0.2154,-0.246,-0.2611,-0.2752,-0.2949,-0.313,-0.3387,-0.3516,-0.3699,-0.3721,-0.376,-0.3597,-0.3472,-0.3369,-0.323,-0.3347,-0.2889,-0.275,-0.3163,-0.3113,-0.3112,-0.3109,-0.2449,-0.2441,-0.2434,-0.2429,0,-0.2204,-0.2408,-0.2578,-0.2893,-0.2993,-0.3063,-0.3393,-0.3512,-0.3632,-0.3741,-0.3753,-0.3809,-0.3752,-0.3756,-0.366,-0.3523,-0.3406,-0.3346,-0.307,-0.2987,-0.3136,-0.3129,-0.3151,-0.3146,-0.3142,-0.3139,-0.3136,0,-0.2472,-0.2569,-0.2882,-0.2944,-0.3095,-0.3319,-0.3432,-0.3535,-0.3682,-0.377,-0.379,-0.3772,-0.3736,-0.3714,-0.3593,-0.3446,-0.3536,-0.3282,-0.3234,-0.2992,-0.2957,-0.333,-0.332,-0.3415,-0.3415,-0.3415,-0.3415,0,-0.2581,-0.286,-0.2975,-0.3068,-0.3368,-0.3423,-0.3543,-0.3645,-0.3729,-0.3758,-0.3779,-0.3754,-0.3716,-0.3644,-0.3527,-0.3475,-0.3479,-0.3399,-0.324,-0.3229,-0.2986,-0.2949,-0.3414,-0.3414,-0.3414,-0.3414,-0.3414,0,-0.2798,-0.2917,-0.3067,-0.3352,-0.3388,-0.3473,-0.3578,-0.3673,-0.3726,-0.3712,-0.3697,-0.3634,-0.3622,-0.3517,-0.347,-0.3431,-0.3359,-0.3308,-0.3306,-0.3175,-0.3073,-0.2896,-0.2816,-0.3245,-0.3244,-0.3243,-0.3242,0,-0.2915,-0.3026,-0.312,-0.3276,-0.3361,-0.3444,-0.3533,-0.3586,-0.3579,-0.3594,-0.3535,-0.3512,-0.3421,-0.3358,-0.3355,-0.3266,-0.3281,-0.3251,-0.3196,-0.3197,-0.313,-0.3108,-0.2824,-0.2816,-0.3228,-0.3229,-0.323,0,-0.2932,-0.3114,-0.3097,-0.3244,-0.3324,-0.3299,-0.339,-0.3441,-0.3505,-0.3435,-0.3493,-0.3415,-0.3331,-0.332,-0.3239,-0.3241,-0.3255,-0.3145,-0.3144,-0.322,-0.3246,-0.3105,-0.3101,-0.3186,-0.3188,-0.3189,-0.3219,0,-0.3147,-0.3237,-0.317,-0.3284,-0.3284,-0.3242,-0.3316,-0.3292,-0.3302,-0.3332,-0.3286,-0.3193,-0.3171,-0.3128,-0.3093,-0.3113,-0.3066,-0.3025,-0.3077,-0.3058,-0.306,-0.307,-0.2948,-0.2947,-0.2946,-0.2946,0,0,-0.3225,-0.3259,-0.3191,-0.3222,-0.3253,-0.3232,-0.3288,-0.328,-0.3237,-0.3243,-0.3212,-0.3137,-0.3093,-0.3123,-0.3101,-0.3012,-0.2988,-0.3059,-0.3026,-0.3035,-0.3043,-0.3049,-0.3059,-0.2944,-0.2944,-0.2944,-0.2943,0,-0.324,-0.3269,-0.3239,-0.325,-0.3232,-0.3246,-0.3239,-0.3211,-0.323,-0.3192,-0.3225,-0.3173,-0.3064,-0.3096,-0.3096,-0.2998,-0.3016,-0.2933,-0.3013,-0.3017,-0.3028,-0.3036,-0.3044,-0.3053,-0.2941,-0.2941,-0.2942,0,-0.3359,-0.3359,-0.3347,-0.335,-0.3328,-0.3367,-0.3364,-0.3271,-0.3344,-0.3298,-0.3318,-0.3241,-0.3207,-0.3139,-0.3102,-0.3115,-0.3045,-0.3019,-0.3019,-0.308,-0.3089,-0.3098,-0.3105,-0.3026,-0.3027,-0.3028,0,0,-0.3396,-0.3349,-0.3404,-0.3374,-0.3363,-0.3375,-0.3334,-0.3367,-0.3323,-0.3315,-0.3307,-0.3281,-0.3249,-0.3223,-0.3154,-0.3045,-0.3065,-0.3037,-0.3033,-0.303,-0.3089,-0.3097,-0.3103,-0.3032,-0.3032,-0.3032,0,0,-0.3385,-0.3412,-0.353,-0.3512,-0.3488,-0.3431,-0.335,-0.3407,-0.336,-0.3384,-0.3408,-0.34,-0.3328,-0.3277,-0.3331,-0.3215,-0.3219,-0.3204,-0.3291,-0.3285,-0.328,-0.3387,-0.3411,0,0,0,0,0,-0.3454,-0.3404,-0.3513,-0.3521,-0.353,-0.3409,-0.3394,-0.3426,-0.3506,-0.3452,-0.3455,-0.3495,-0.3322,-0.337,-0.3343,-0.3356,-0.3084,-0.3074,-0.3066,-0.3148,-0.3142,-0.3137,0,0,0,0,0,0,-0.3457,-0.3472,-0.3509,-0.3473,-0.3472,-0.3413,-0.3532,-0.3536,-0.3514,-0.3529,-0.3493,-0.3493,-0.3498,-0.3384,-0.3359,-0.3374,-0.3419,-0.308,-0.3072,-0.3065,-0.3146,-0.3141,-0.3137,0,0,0,0,0,-0.3459,-0.3471,-0.352,-0.3468,-0.3468,-0.3485,-0.3539,-0.3543,-0.3531,-0.3505,-0.3508,-0.3565,-0.3494,-0.3477,-0.3369,-0.3386,-0.3436,-0.3427,-0.3075,-0.3069,-0.3063,-0.3144,0,0,0,0,0,0,-0.346,-0.3437,-0.3516,-0.351,-0.3534,-0.3487,-0.3497,-0.3549,-0.351,-0.3511,-0.3577,-0.3589,-0.3489,-0.3477,-0.3463,-0.3394,-0.345,-0.3441,-0.3435,-0.307,-0.3066,-0.3061,0,0,0,0,0,0,-0.3429,-0.3434,-0.3513,-0.3596,-0.36,-0.3488,-0.3499,-0.3383,-0.3509,-0.3583,-0.3593,-0.3583,-0.3517,-0.3475,-0.3465,-0.3278,-0.3461,-0.3452,-0.3445,-0.3442,-0.3066,-0.3063,0,0,0,0,0,0,-0.3428,-0.3431,-0.3598,-0.36,-0.3604,-0.3537,-0.3381,-0.3398,-0.3572,-0.3584,-0.359,-0.3598,-0.3514,-0.3504,-0.3466,-0.3283,-0.328,-0.346,-0.3454,-0.345,-0.3447,0,0,0,0,0,0,0,-0.3427,-0.3443,-0.3555,-0.3604,-0.3607,-0.3455,-0.3453,-0.3451,-0.3573,-0.358,-0.3588,-0.3594,-0.3511,-0.3501,-0.3492,-0.3287,0,0,-0.3461,-0.3457,0,0,0,0,0,0,0,0,-0.3438,-0.3442,-0.3555,-0.3554,-0.3553,-0.3454,-0.3453,-0.3451,-0.3575,-0.358,-0.3586,-0.3592,-0.3509,-0.3501,-0.3493,0,0,0,0,0,0,0,0,0,0,0,0,0,0,0,-0.3555,-0.3554,0,-0.3454,-0.3453,-0.3452,-0.3575,-0.358,-0.3585,-0.3589,-0.3506,-0.35,-0.3493,0,0,0,0,0,0,0,0,0,0,0,0,0,0,0,0,0,0,0,0,0,0,0,0,0,0,0,0,0,0,0,0,0,0,0,0,0,0,0,0,0,0,0,0,0,0,0,0,0,0,0,0,0,0,0,0,0,0,0,0,0,0,0,0,0,0,0,0,0]}],[{"header":{"parameterUnit":"kt","parameterCategory":2,"dx":1,"dy":1,"la1":30.253999710083008,"la2":30.299108505249023,"lo1":-89.0895004272461,"lo2":-89.04439544677734,"nx":28,"ny":28,"refTime":"2022-10-10T21:00:00:Z","depth":"2","parameterNumber":3,"parameterNumberName":"V-component_of_CURRENTS"},"data":[-0.0843,-0.1081,-0.1246,-0.1463,-0.1533,-0.1464,-0.137,-0.1237,-0.1042,-0.0899,-0.0714,-0.0576,-0.023,-0.0019,0.0181,0.036,0.0461,0.0369,0.0335,0.0468,0.0483,0.0682,0.0563,0,0,0,0,0,-0.0807,-0.0998,-0.114,-0.1289,-0.135,-0.129,-0.1151,-0.1047,-0.0951,-0.0771,-0.0646,-0.042,-0.0259,0.0037,0.0327,0.0448,0.0528,0.0493,0.0615,0.0631,0.0646,0.0563,0.0482,0.0483,0.0484,0.0484,0,0,-0.0789,-0.0881,-0.1028,-0.1134,-0.1136,-0.1129,-0.1047,-0.0927,-0.0812,-0.0575,-0.0441,-0.0267,-0.0005,0.0137,0.0279,0.049,0.0507,0.0611,0.0624,0.0638,0.0547,0.0425,0.0465,0.0465,0.0465,0.0465,0.0465,0,-0.0807,-0.0856,-0.0863,-0.1002,-0.0979,-0.0896,-0.0772,-0.0725,-0.0436,-0.0311,-0.0129,-0.0057,0.0164,0.0297,0.04,0.0466,0.0739,0.0692,0.0803,0.0791,0.0675,0.0634,0.0622,0.078,0.0782,0.0784,0.0785,0.0786,-0.0834,-0.0846,-0.0816,-0.084,-0.0778,-0.0677,-0.0611,-0.0361,-0.0262,0.0045,0.0092,0.0266,0.031,0.0494,0.0627,0.0709,0.0751,0.0744,0.0756,0.0743,0.0703,0.0685,0.0666,0.0808,0.0805,0.0803,0.0801,0,-0.0828,-0.081,-0.0745,-0.061,-0.0569,-0.0507,-0.0307,-0.0216,-0.0015,0.0111,0.0156,0.0417,0.0521,0.0618,0.0799,0.0822,0.0905,0.0875,0.0772,0.0736,0.0702,0.0678,0.0875,0.087,0.0867,0.0864,0.0861,0,-0.0771,-0.0697,-0.0645,-0.0615,-0.0513,-0.0339,-0.0202,-0.0058,0.0129,0.0214,0.0387,0.0469,0.0628,0.0708,0.0756,0.078,0.0906,0.0799,0.0778,0.0752,0.0727,0.0849,0.0825,0.1038,0.1037,0.1036,0.1035,0,-0.0734,-0.0626,-0.0596,-0.0535,-0.0351,-0.026,-0.0144,0.0042,0.0124,0.0314,0.0371,0.0529,0.0558,0.0686,0.0673,0.0664,0.0847,0.085,0.0738,0.0723,0.0763,0.074,0.1034,0.1034,0.1033,0.1033,0.1033,0,-0.0646,-0.0638,-0.0599,-0.0394,-0.0364,-0.0278,-0.0066,0.0032,0.02,0.0251,0.0342,0.0363,0.0483,0.0413,0.0588,0.0503,0.0538,0.0575,0.058,0.045,0.0335,0.044,0.0528,0.0557,0.0553,0.055,0.0547,0,-0.058,-0.0607,-0.0543,-0.0433,-0.0404,-0.0277,-0.0161,-0.0064,0.0011,0.0119,0.0162,0.0225,0.016,0.0167,0.0266,0.0312,0.0408,0.029,0.0453,0.0458,0.0316,0.0399,0.0378,0.048,0.0504,0.0508,0.0511,0,-0.056,-0.0531,-0.0525,-0.0468,-0.0387,-0.0369,-0.0256,-0.0163,-0.0064,-0.0061,0.0072,0.0091,0.0078,0.0115,0.0103,0.0202,0.0326,0.0161,0.0167,0.0227,0.0533,0.0356,0.0367,0.0337,0.0343,0.0348,0.0477,0,-0.0538,-0.0484,-0.0498,-0.0461,-0.0425,-0.0406,-0.0341,-0.0307,-0.0258,-0.0209,-0.014,-0.0139,-0.0067,-0.0081,-0.0085,0.0051,0.0015,0.0009,0.0042,0.0098,0.0132,0.0159,-0.0164,-0.0164,-0.0164,-0.0165,0,0,-0.048,-0.0477,-0.0478,-0.0492,-0.0436,-0.0421,-0.0389,-0.0353,-0.0319,-0.0272,-0.032,-0.0212,-0.0209,-0.0095,-0.0112,-0.0134,-0.0098,-0.01,0.0032,0.0053,0.0073,0.0112,0.0138,-0.0165,-0.0165,-0.0165,-0.0165,0,-0.0503,-0.0458,-0.0469,-0.0453,-0.0457,-0.0419,-0.0418,-0.0394,-0.0369,-0.0325,-0.0301,-0.028,-0.0251,-0.0205,-0.0173,-0.0149,-0.0107,-0.0182,-0.0093,0.0023,0.0045,0.0064,0.0106,0.013,-0.0166,-0.0166,-0.0166,0,-0.0479,-0.0471,-0.0434,-0.0429,-0.0417,-0.0391,-0.0386,-0.0393,-0.0335,-0.0336,-0.0272,-0.0286,-0.025,-0.0231,-0.0222,-0.0216,-0.0097,-0.0175,-0.0174,-0.011,0.0014,0.0036,0.0056,-0.0189,-0.0189,-0.0189,0,0,-0.05,-0.0475,-0.0444,-0.0423,-0.0429,-0.0383,-0.0373,-0.0365,-0.0346,-0.0342,-0.0314,-0.0283,-0.0254,-0.024,-0.0236,-0.0197,-0.0135,-0.0176,-0.0175,-0.0174,-0.0112,0.0011,0.0032,-0.0188,-0.0188,-0.0188,0,0,-0.0506,-0.0453,-0.0417,-0.0394,-0.0392,-0.0361,-0.037,-0.0331,-0.032,-0.0313,-0.0276,-0.0275,-0.0266,-0.0253,-0.0254,-0.0215,-0.0222,-0.0221,-0.0208,-0.0207,-0.0206,-0.0133,-0.0241,0,0,0,0,0,-0.0458,-0.0454,-0.042,-0.0408,-0.0345,-0.0357,-0.0351,-0.034,-0.0294,-0.0325,-0.0294,-0.0278,-0.0265,-0.0266,-0.0256,-0.0227,-0.0186,-0.0186,-0.0187,-0.0164,-0.0163,-0.0161,0,0,0,0,0,0,-0.0453,-0.0439,-0.0421,-0.0382,-0.0367,-0.0355,-0.0321,-0.0317,-0.0296,-0.0299,-0.0278,-0.0277,-0.0274,-0.0268,-0.026,-0.0232,-0.0244,-0.0186,-0.0186,-0.0187,-0.0163,-0.0162,-0.0161,0,0,0,0,0,-0.0449,-0.0437,-0.0341,-0.0382,-0.037,-0.0345,-0.0323,-0.032,-0.0307,-0.0287,-0.0286,-0.0303,-0.0273,-0.0267,-0.0263,-0.0237,-0.0249,-0.0247,-0.0186,-0.0186,-0.0187,-0.0163,0,0,0,0,0,0,-0.0446,-0.0436,-0.0338,-0.0333,-0.0401,-0.0349,-0.0342,-0.0323,-0.0297,-0.0294,-0.0312,-0.0315,-0.0272,-0.0267,-0.0262,-0.0239,-0.0254,-0.0251,-0.0249,-0.0186,-0.0187,-0.0187,0,0,0,0,0,0,-0.0441,-0.0432,-0.0336,-0.036,-0.0358,-0.0353,-0.0347,-0.031,-0.0298,-0.0325,-0.0325,-0.0314,-0.0285,-0.0267,-0.0263,-0.0205,-0.0257,-0.0254,-0.0253,-0.0251,-0.0187,-0.0187,0,0,0,0,0,0,-0.0437,-0.0429,-0.0362,-0.036,-0.0359,-0.0306,-0.0321,-0.0262,-0.0303,-0.0326,-0.0308,-0.031,-0.0285,-0.0281,-0.0264,-0.0207,-0.0206,-0.0257,-0.0255,-0.0254,-0.0253,0,0,0,0,0,0,0,-0.0433,-0.0493,-0.0364,-0.036,-0.0359,-0.0289,-0.0288,-0.0287,-0.0304,-0.0306,-0.0308,-0.0309,-0.0274,-0.0271,-0.0267,-0.0209,0,0,-0.0258,-0.0256,0,0,0,0,0,0,0,0,-0.0496,-0.0494,-0.0364,-0.0363,-0.0361,-0.0289,-0.0288,-0.0287,-0.0304,-0.0306,-0.0307,-0.0309,-0.0273,-0.027,-0.0268,0,0,0,0,0,0,0,0,0,0,0,0,0,0,0,-0.0364,-0.0363,0,-0.0288,-0.0288,-0.0287,-0.0304,-0.0306,-0.0307,-0.0308,-0.0272,-0.027,-0.0268,0,0,0,0,0,0,0,0,0,0,0,0,0,0,0,0,0,0,0,0,0,0,0,0,0,0,0,0,0,0,0,0,0,0,0,0,0,0,0,0,0,0,0,0,0,0,0,0,0,0,0,0,0,0,0,0,0,0,0,0,0,0,0,0,0,0,0,0,0]}]],[[{"header":{"parameterUnit":"kt","parameterCategory":2,"dx":1,"dy":1,"la1":30.253999710083008,"la2":30.299108505249023,"lo1":-89.0895004272461,"lo2":-89.04439544677734,"nx":28,"ny":28,"refTime":"2022-10-10T21:00:00:Z","depth":"4","parameterNumber":2,"parameterNumberName":"U-component_of_CURRENTS"},"data":[-0.0479,-0.0387,-0.0297,-0.0167,-0.0094,-0.0078,-0.0148,-0.0249,-0.0309,-0.0468,-0.0602,-0.0732,-0.096,-0.095,-0.1194,-0.1235,-0.1327,-0.1547,-0.1547,-0.1745,-0.1757,-0.1768,-0.1888,0,0,0,0,0,-0.0534,-0.044,-0.0341,-0.0284,-0.0235,-0.0259,-0.0339,-0.0406,-0.0547,-0.0573,-0.0702,-0.0815,-0.1035,-0.1156,-0.1238,-0.1323,-0.1547,-0.1414,-0.1574,-0.1752,-0.1766,-0.1878,0,0,0,0,0,0,-0.0594,-0.0536,-0.0455,-0.0427,-0.0407,-0.0411,-0.0482,-0.0509,-0.0588,-0.0833,-0.0779,-0.1074,-0.1187,-0.1352,-0.1391,-0.1491,-0.1554,-0.1574,-0.1596,-0.1611,-0.1669,-0.1591,-0.1325,0,0,0,0,0,-0.0657,-0.0651,-0.0595,-0.0558,-0.0566,-0.0585,-0.0656,-0.0657,-0.0862,-0.1012,-0.111,-0.1277,-0.1328,-0.1494,-0.1546,-0.1611,-0.1862,-0.1772,-0.1783,-0.1969,-0.1929,-0.1863,-0.1872,-0.1819,-0.1821,-0.1822,-0.1823,0,-0.0742,-0.0708,-0.0703,-0.0683,-0.0707,-0.0793,-0.0866,-0.107,-0.1082,-0.1309,-0.1298,-0.1465,-0.1639,-0.1608,-0.1768,-0.1845,-0.1864,-0.1807,-0.2005,-0.1953,-0.1881,-0.1887,-0.1892,-0.1834,-0.1833,-0.1832,-0.1831,0,-0.0777,-0.08,-0.0756,-0.0823,-0.0868,-0.093,-0.1059,-0.1112,-0.1382,-0.1454,-0.1559,-0.1802,-0.1904,-0.2025,-0.2054,-0.2057,-0.2056,-0.1998,-0.2077,-0.2,-0.1912,-0.1913,-0.1853,-0.1849,-0.1845,-0.1842,-0.184,0,-0.0862,-0.0836,-0.0876,-0.0851,-0.0921,-0.1042,-0.1151,-0.1348,-0.1521,-0.1595,-0.1937,-0.1985,-0.2201,-0.2202,-0.2266,-0.22,-0.2234,-0.2206,-0.2128,-0.2279,-0.2276,-0.2243,-0.2236,-0.2318,-0.232,-0.2322,-0.2323,0,-0.0921,-0.0932,-0.0918,-0.093,-0.105,-0.1112,-0.1234,-0.1484,-0.156,-0.1844,-0.1918,-0.2138,-0.2185,-0.2278,-0.231,-0.2364,-0.2296,-0.2308,-0.2167,-0.2152,-0.225,-0.2241,-0.2325,-0.2326,-0.2326,-0.2327,-0.2327,0,-0.1005,-0.1004,-0.1001,-0.105,-0.1072,-0.1147,-0.1334,-0.146,-0.1708,-0.181,-0.1981,-0.2093,-0.2274,-0.2292,-0.2375,-0.2408,-0.2374,-0.236,-0.2349,-0.2255,-0.212,-0.2048,-0.2123,-0.2123,-0.2123,-0.2123,-0.2124,0,-0.1014,-0.1023,-0.1084,-0.1104,-0.1105,-0.1237,-0.1385,-0.1538,-0.165,-0.1776,-0.192,-0.2054,-0.2146,-0.2224,-0.2299,-0.2316,-0.2332,-0.2366,-0.221,-0.2203,-0.2113,-0.2172,-0.2346,-0.2124,-0.2124,-0.2124,-0.2124,0,-0.1035,-0.109,-0.1092,-0.1082,-0.1214,-0.1245,-0.1394,-0.1524,-0.1611,-0.175,-0.1836,-0.2024,-0.2092,-0.2149,-0.2217,-0.2276,-0.231,-0.2275,-0.2272,-0.2172,-0.2265,-0.2176,-0.2165,-0.2333,-0.2336,-0.2338,-0.2125,0,-0.1148,-0.1099,-0.1114,-0.1166,-0.1222,-0.1261,-0.1369,-0.1464,-0.1537,-0.1615,-0.1764,-0.1843,-0.1952,-0.1988,-0.2044,-0.2175,-0.212,-0.2105,-0.2072,-0.2152,-0.2036,-0.2036,-0.2009,-0.2007,-0.2006,-0.2004,0,0,-0.114,-0.1096,-0.1133,-0.1159,-0.119,-0.1285,-0.1305,-0.1388,-0.1492,-0.1551,-0.1561,-0.1733,-0.1779,-0.1924,-0.1999,-0.198,-0.1958,-0.2038,-0.2107,-0.2119,-0.213,-0.2026,-0.2028,-0.2002,-0.2001,-0.2001,-0.2,0,-0.119,-0.1124,-0.1114,-0.1154,-0.1222,-0.1272,-0.1293,-0.1361,-0.1421,-0.1507,-0.1562,-0.1654,-0.1743,-0.1823,-0.1864,-0.1954,-0.1919,-0.1978,-0.2093,-0.2093,-0.2107,-0.2119,-0.202,-0.2022,-0.1997,-0.1997,-0.1997,0,-0.1218,-0.1212,-0.1182,-0.1164,-0.1201,-0.1244,-0.1261,-0.1321,-0.1381,-0.1412,-0.1522,-0.1575,-0.1635,-0.174,-0.1787,-0.1771,-0.1871,-0.1865,-0.1873,-0.1916,-0.1915,-0.193,-0.1945,-0.1762,-0.1762,-0.1761,0,0,-0.1257,-0.1225,-0.1225,-0.1165,-0.1185,-0.1232,-0.1263,-0.1307,-0.1372,-0.1408,-0.1473,-0.1541,-0.1611,-0.1665,-0.1716,-0.1791,-0.1757,-0.1839,-0.185,-0.1859,-0.1906,-0.1908,-0.1923,-0.1759,-0.1759,-0.1759,0,0,-0.1295,-0.1271,-0.1249,-0.1157,-0.1209,-0.126,-0.1294,-0.132,-0.1393,-0.1415,-0.1468,-0.1491,-0.1596,-0.1609,-0.1576,-0.1725,-0.1676,-0.1683,-0.1735,-0.1749,-0.1759,-0.1809,-0.1585,0,0,0,0,0,-0.1337,-0.1266,-0.1243,-0.1229,-0.1179,-0.1236,-0.1247,-0.1314,-0.1328,-0.1362,-0.1434,-0.1443,-0.1619,-0.1591,-0.1602,-0.1666,-0.173,-0.1735,-0.174,-0.1822,-0.1837,-0.1849,0,0,0,0,0,0,-0.1331,-0.1304,-0.125,-0.1271,-0.1265,-0.1235,-0.126,-0.1277,-0.1329,-0.1341,-0.1426,-0.1444,-0.1483,-0.1587,-0.1596,-0.1658,-0.1581,-0.1732,-0.1737,-0.1741,-0.1827,-0.1839,-0.1849,0,0,0,0,0,-0.1327,-0.1306,-0.1181,-0.1278,-0.1272,-0.1348,-0.1262,-0.1277,-0.1323,-0.139,-0.141,-0.1381,-0.148,-0.1495,-0.1592,-0.1654,-0.1575,-0.1578,-0.1735,-0.1739,-0.1742,-0.1833,0,0,0,0,0,0,-0.1325,-0.1335,-0.1185,-0.1192,-0.1306,-0.1357,-0.1354,-0.1277,-0.1371,-0.139,-0.1345,-0.1353,-0.1476,-0.1489,-0.15,-0.1654,-0.157,-0.1573,-0.1576,-0.1738,-0.174,-0.1743,0,0,0,0,0,0,-0.1349,-0.1337,-0.1188,-0.1219,-0.1229,-0.1365,-0.1362,-0.1386,-0.1373,-0.132,-0.133,-0.1348,-0.1481,-0.1484,-0.1494,-0.1529,-0.1566,-0.1569,-0.1572,-0.1573,-0.174,-0.1742,0,0,0,0,0,0,-0.1348,-0.1338,-0.1217,-0.1225,-0.1234,-0.1308,-0.1394,-0.1346,-0.1369,-0.1315,-0.1378,-0.1381,-0.1476,-0.1485,-0.1489,-0.1519,-0.1526,-0.1566,-0.1568,-0.157,-0.1571,0,0,0,0,0,0,0,-0.1347,-0.136,-0.1154,-0.123,-0.1239,-0.1254,-0.1255,-0.1256,-0.137,-0.1373,-0.1377,-0.138,-0.1547,-0.1551,-0.1554,-0.1511,0,0,-0.1566,-0.1567,0,0,0,0,0,0,0,0,-0.1369,-0.1362,-0.1154,-0.1156,-0.1158,-0.1254,-0.1255,-0.1255,-0.1371,-0.1373,-0.1376,-0.1379,-0.1548,-0.1551,-0.1554,0,0,0,0,0,0,0,0,0,0,0,0,0,0,0,-0.1154,-0.1156,0,-0.1254,-0.1255,-0.1255,-0.1371,-0.1373,-0.1375,-0.1378,-0.1549,-0.1551,-0.1554,0,0,0,0,0,0,0,0,0,0,0,0,0,0,0,0,0,0,0,0,0,0,0,0,0,0,0,0,0,0,0,0,0,0,0,0,0,0,0,0,0,0,0,0,0,0,0,0,0,0,0,0,0,0,0,0,0,0,0,0,0,0,0,0,0,0,0,0,0]}],[{"header":{"parameterUnit":"kt","parameterCategory":2,"dx":1,"dy":1,"la1":30.253999710083008,"la2":30.299108505249023,"lo1":-89.0895004272461,"lo2":-89.04439544677734,"nx":28,"ny":28,"refTime":"2022-10-10T21:00:00:Z","depth":"4","parameterNumber":3,"parameterNumberName":"V-component_of_CURRENTS"},"data":[-0.0874,-0.0943,-0.0976,-0.1046,-0.111,-0.1192,-0.1225,-0.125,-0.1166,-0.1167,-0.1002,-0.0952,-0.0655,-0.0848,-0.037,-0.0313,-0.037,0.0035,0.0041,-0.0128,-0.0151,-0.0171,-0.0312,0,0,0,0,0,-0.0884,-0.0914,-0.1008,-0.1132,-0.1208,-0.1284,-0.1334,-0.1376,-0.1385,-0.1237,-0.1267,-0.1024,-0.0722,-0.0618,-0.0377,-0.0378,-0.024,-0.0089,-0.0238,-0.0142,-0.0168,-0.0296,0,0,0,0,0,0,-0.0888,-0.0942,-0.1034,-0.1169,-0.1272,-0.1323,-0.1408,-0.1367,-0.1384,-0.1368,-0.127,-0.1123,-0.103,-0.0718,-0.0473,-0.0266,-0.0271,-0.026,-0.0277,-0.03,-0.0413,-0.0306,-0.008,0,0,0,0,0,-0.0898,-0.0957,-0.1042,-0.1196,-0.1304,-0.1416,-0.1515,-0.1499,-0.1563,-0.1606,-0.1447,-0.1311,-0.1027,-0.0825,-0.0544,-0.0351,-0.0471,-0.0282,-0.0298,-0.0487,-0.0399,-0.0347,-0.0364,-0.0264,-0.0267,-0.0269,-0.0271,0,-0.0884,-0.0941,-0.1133,-0.1212,-0.1308,-0.1482,-0.1558,-0.1682,-0.1664,-0.1678,-0.163,-0.1487,-0.1395,-0.0945,-0.0822,-0.0519,-0.0477,-0.0347,-0.0549,-0.0442,-0.038,-0.0392,-0.0402,-0.0291,-0.029,-0.0288,-0.0286,0,-0.0893,-0.096,-0.1091,-0.1267,-0.1338,-0.1466,-0.1622,-0.1662,-0.1753,-0.1756,-0.1792,-0.1722,-0.1509,-0.1339,-0.1131,-0.0979,-0.077,-0.0623,-0.0775,-0.0712,-0.0437,-0.0439,-0.0325,-0.0317,-0.0311,-0.0306,-0.0301,0,-0.0907,-0.0995,-0.112,-0.1176,-0.1341,-0.1437,-0.157,-0.165,-0.172,-0.1727,-0.1788,-0.1723,-0.1668,-0.1495,-0.1341,-0.1014,-0.1126,-0.084,-0.0765,-0.1026,-0.1024,-0.099,-0.0983,-0.1073,-0.1075,-0.1077,-0.1079,0,-0.0885,-0.1006,-0.1098,-0.1146,-0.1284,-0.1373,-0.1462,-0.1533,-0.1569,-0.1674,-0.166,-0.1685,-0.1643,-0.1567,-0.1306,-0.1332,-0.1097,-0.1136,-0.083,-0.0807,-0.1,-0.099,-0.1082,-0.1082,-0.1083,-0.1084,-0.1085,0,-0.0887,-0.0935,-0.1033,-0.1183,-0.1201,-0.1279,-0.1386,-0.1457,-0.1517,-0.1514,-0.1536,-0.15,-0.1524,-0.1445,-0.132,-0.1331,-0.1195,-0.1092,-0.108,-0.0906,-0.0784,-0.0766,-0.0829,-0.0829,-0.0829,-0.083,-0.083,0,-0.0892,-0.0935,-0.0946,-0.1056,-0.1092,-0.111,-0.1201,-0.1236,-0.1227,-0.128,-0.1276,-0.1324,-0.1226,-0.1233,-0.1236,-0.1143,-0.1109,-0.1156,-0.0958,-0.095,-0.0798,-0.0831,-0.1128,-0.0832,-0.0832,-0.0832,-0.0831,0,-0.0852,-0.0874,-0.0881,-0.094,-0.0946,-0.0941,-0.1015,-0.1049,-0.1098,-0.1071,-0.1154,-0.1167,-0.1124,-0.1139,-0.1092,-0.11,-0.1091,-0.1004,-0.1003,-0.0878,-0.1017,-0.0845,-0.0825,-0.1111,-0.1115,-0.1117,-0.0833,0,-0.0814,-0.0875,-0.0861,-0.0872,-0.0877,-0.0873,-0.0861,-0.0871,-0.086,-0.0856,-0.0903,-0.0875,-0.0909,-0.0901,-0.0865,-0.0958,-0.0834,-0.0858,-0.0826,-0.0903,-0.075,-0.075,-0.0731,-0.073,-0.0728,-0.0727,0,0,-0.0806,-0.0825,-0.0764,-0.0763,-0.0779,-0.0699,-0.0728,-0.072,-0.0677,-0.0701,-0.0651,-0.0687,-0.0689,-0.0774,-0.0786,-0.0767,-0.0692,-0.0757,-0.0851,-0.0865,-0.0878,-0.0741,-0.0742,-0.0724,-0.0723,-0.0723,-0.0722,0,-0.0742,-0.0771,-0.0773,-0.0759,-0.0702,-0.0671,-0.0667,-0.0599,-0.0601,-0.062,-0.0595,-0.0613,-0.0613,-0.0644,-0.0659,-0.0732,-0.066,-0.0711,-0.0801,-0.0835,-0.0851,-0.0866,-0.0734,-0.0736,-0.0718,-0.0719,-0.0719,0,-0.071,-0.0684,-0.0705,-0.0681,-0.064,-0.0641,-0.0568,-0.0524,-0.0561,-0.0488,-0.0533,-0.0505,-0.0507,-0.0544,-0.0561,-0.054,-0.0609,-0.0606,-0.0613,-0.0643,-0.0677,-0.0695,-0.0711,-0.0508,-0.0508,-0.0508,0,0,-0.0665,-0.0679,-0.0634,-0.0667,-0.064,-0.0585,-0.0561,-0.0529,-0.0489,-0.048,-0.0471,-0.0472,-0.0492,-0.0501,-0.0504,-0.054,-0.0505,-0.0583,-0.0593,-0.0601,-0.0635,-0.0672,-0.0688,-0.0506,-0.0506,-0.0506,0,0,-0.0623,-0.0587,-0.061,-0.0644,-0.0602,-0.0515,-0.05,-0.0479,-0.0463,-0.0464,-0.0445,-0.0442,-0.0477,-0.0461,-0.0442,-0.0517,-0.0471,-0.0475,-0.0541,-0.0553,-0.0562,-0.0603,-0.0425,0,0,0,0,0,-0.0558,-0.0592,-0.0615,-0.0616,-0.0594,-0.0526,-0.0516,-0.0468,-0.0461,-0.0456,-0.0442,-0.0438,-0.0445,-0.0426,-0.0428,-0.0491,-0.0488,-0.0491,-0.0494,-0.0586,-0.0599,-0.061,0,0,0,0,0,0,-0.0558,-0.0562,-0.0611,-0.0538,-0.053,-0.0526,-0.0494,-0.0482,-0.046,-0.0455,-0.0439,-0.0437,-0.0419,-0.0425,-0.0427,-0.0488,-0.0424,-0.0489,-0.0492,-0.0494,-0.0591,-0.0601,-0.061,0,0,0,0,0,-0.0557,-0.056,-0.0556,-0.0534,-0.0528,-0.0465,-0.0494,-0.0483,-0.0471,-0.044,-0.0436,-0.0436,-0.042,-0.0421,-0.0426,-0.0488,-0.0423,-0.0423,-0.0491,-0.0493,-0.0495,-0.0596,0,0,0,0,0,0,-0.0556,-0.0542,-0.0551,-0.0544,-0.053,-0.0463,-0.0459,-0.0485,-0.0459,-0.0452,-0.0437,-0.0434,-0.042,-0.0421,-0.0422,-0.049,-0.0422,-0.0422,-0.0423,-0.0492,-0.0494,-0.0496,0,0,0,0,0,0,-0.0538,-0.0538,-0.0548,-0.0546,-0.0539,-0.0461,-0.0458,-0.0468,-0.0462,-0.0459,-0.0454,-0.0436,-0.0437,-0.0421,-0.0422,-0.0438,-0.0421,-0.0421,-0.0422,-0.0422,-0.0494,-0.0495,0,0,0,0,0,0,-0.0536,-0.0535,-0.0548,-0.0542,-0.0536,-0.0456,-0.047,-0.0467,-0.0415,-0.0464,-0.0414,-0.0413,-0.0439,-0.0438,-0.0422,-0.0437,-0.0437,-0.0421,-0.0421,-0.0422,-0.0422,0,0,0,0,0,0,0,-0.0533,-0.0571,-0.0588,-0.0539,-0.0533,-0.0478,-0.0476,-0.0475,-0.0415,-0.0415,-0.0414,-0.0413,-0.0417,-0.0417,-0.0418,-0.0437,0,0,-0.0421,-0.0421,0,0,0,0,0,0,0,0,-0.0569,-0.0571,-0.0588,-0.0586,-0.0585,-0.0478,-0.0477,-0.0475,-0.0415,-0.0415,-0.0414,-0.0413,-0.0417,-0.0418,-0.0418,0,0,0,0,0,0,0,0,0,0,0,0,0,0,0,-0.0588,-0.0586,0,-0.0478,-0.0477,-0.0476,-0.0415,-0.0415,-0.0414,-0.0414,-0.0417,-0.0418,-0.0418,0,0,0,0,0,0,0,0,0,0,0,0,0,0,0,0,0,0,0,0,0,0,0,0,0,0,0,0,0,0,0,0,0,0,0,0,0,0,0,0,0,0,0,0,0,0,0,0,0,0,0,0,0,0,0,0,0,0,0,0,0,0,0,0,0,0,0,0,0]}]]]